Regional Weather Roundup
Issued by NWS Sterling, VA

Home | Current Version | Previous Version | Graphics & Text | Print | Product List | Glossary On
Versions: 1 2 3 4 5 6 7 8 9 10 11 12 13 14 15 16 17 18 19 20 21 22 23 24 25 26 27 28 29 30 31 32 33 34 35 36 37 38 39 40 41 42 43 44 45 46 47 48 49 50
000
ASUS41 KLWX 170910
RWRLWX

REGIONAL WEATHER ROUNDUP
NATIONAL WEATHER SERVICE BALTIMORE MD/WASHINGTON DC
500 AM EDT WED SEP 17 2014

Note: "FAIR" indicates few or no clouds below 12,000 feet
with no significant weather and/or obstructions to visibility.
 TC=TEMPERATURE CELSIUS

 * =Non NWS site. Station does not report precipitation (e.g. rain,
    snow, etc.), thunder, or fog.

DCZ001-MDZ009-015-VAZ040>042-051-053>054-171000-
WASHINGTON METRO

CITY           SKY/WX    TMP DP  RH WIND       PRES   REMARKS
WASHINGTON NAT CLEAR     60  51  72 NW6       30.04S
DULLES         CLEAR     50  48  93 NW3       30.05S
ANDREWS AFB    CLEAR     52  50  93 N5        30.03S
QUANTICO       CLEAR     56  52  86 NW7       30.05R
COLLEGE PARK*  CLEAR     52  52 100 CALM      30.04S
LEESBURG*      CLEAR     50  50 100 CALM      30.06S
MANASSAS*      CLEAR     50  48  93 CALM      30.05R
GAITHERSBURG*  CLEAR     48  46  93 CALM      30.08S

$$

MDZ006>007-011-014-171000-
BALTIMORE METRO

CITY           SKY/WX    TMP DP  RH WIND       PRES   REMARKS
BWI AIRPORT    CLEAR     52  50  93 CALM      30.03S
MD SCIENCE CTR   N/A     60  52  74 MISG      30.04S
MARTIN STATE   CLEAR     54  52  94 CALM      30.05S
ANNAPOLIS      CLEAR     62  58  86 N3        30.03R
FORT MEADE*    CLEAR     50  46  87 CALM      30.06S

$$

MDZ012-015-019>023-171000-
MARYLAND EASTERN SHORE

CITY           SKY/WX    TMP DP  RH WIND       PRES   REMARKS
OCEAN CITY     PTCLDY    59  56  89 NW5       30.00F FOG
SALISBURY      PTCLDY    60  55  83 CALM      30.01S
BAY BRIDGE AP*   N/A     61  54  77 E5        30.03R
CAMBRIDGE*     CLEAR     59  54  82 NE5       30.02R
EASTON*        CLEAR     57  57  99 CALM      30.06R

$$

MDZ017>025-171000-
SOUTHERN MARYLAND

CITY           SKY/WX    TMP DP  RH WIND       PRES   REMARKS
PATUXENT RIVER PTCLDY    63  57  81 NE7       30.01S
ST INIGOES     PTCLDY    56  52  86 CALM      30.00S
LEONARDTOWN*   CLEAR     55  54  94 CALM      30.03F

$$

MDZ003>005-171000-
NORTH CENTRAL MARYLAND

CITY           SKY/WX    TMP DP  RH WIND       PRES   REMARKS
FREDERICK*     FOG       50  50 100 CALM      30.08S VSB 1/4
HAGERSTOWN APT CLEAR     51  47  86 CALM      30.06S
WESTMINSTER*   CLEAR     52  46  82 CALM      30.05S

$$

MDZ501>502-171000-
WESTERN MARYLAND

CITY           SKY/WX    TMP DP  RH WIND       PRES   REMARKS
OAKLAND*       CLEAR     48 N/A N/A CALM      30.09S
CUMBERLAND*    CLEAR     46  45  93 N3        30.12S

$$

VAZ025>031-171000-
SHENANDOAH VALLEY

CITY           SKY/WX    TMP DP  RH WIND       PRES   REMARKS
WINCHESTER*    CLEAR     46  45  93 CALM      30.06S
STAUNTON*      PTCLDY    51  48  90 CALM      30.08S

$$

WVZ021-048>050-054>055-171000-
EASTERN WEST VIRGINIA PANHANDLE

CITY           SKY/WX    TMP DP  RH WIND       PRES   REMARKS
MARTINSBURG    CLEAR     46  43  89 CALM      30.06S
PETERSBURG*    CLEAR     45  44  93 CALM      30.09S FOG

$$

VAZ036>039-050-171000-
CENTRAL FOOTHILLS

CITY           SKY/WX    TMP DP  RH WIND       PRES   REMARKS
CHARLOTTESVILL CLOUDY    56  53  90 CALM      30.05S
ORANGE*        PTCLDY    55  50  82 CALM      30.06S

$$

VAZ055>057-171000-
NORTH AND CENTRAL PIEDMONT

CITY           SKY/WX    TMP DP  RH WIND       PRES   REMARKS
FREDERICKSBRG* PTCLDY    55  55 100 CALM      30.03S
STAFFORD*      CLEAR     51  51 100 CALM      30.08R

$$

NCZ024-NYZ072-PAZ021-071-VAZ022-071-171000-
OTHER REGIONAL OBSERVATIONS

CITY           SKY/WX    TMP DP  RH WIND       PRES   REMARKS
NEW YORK CITY  CLEAR     58  48  69 CALM      30.06R
PHILADELPHIA   PTCLDY    56  50  80 N5        30.04R
PITTSBURGH     PTCLDY    51  49  92 CALM      30.07F
ROANOKE        CLOUDY    62  53  72 SE3       30.06F
RICHMOND       PTCLDY    61  56  83 N6        30.01S
RALEIGH        CLOUDY    68  65  90 NE6       29.96S

$$

ANZ530>537-171000-
MARINE OBSERVATIONS

STATION/POSITION TIME  TEMP    WIND        PRES
                       AIR SEA DIR/SP/G
                 (UTC) (F)     (DEG/KT/KT) (MB)
THOMAS PT LIGHT  0900   65 74   80/  8/ 10 1017.8R
BALT KEY BRIDGE  0900   63     360/  5/  5 1016.8S
COVE POINT       0900   65      70/ 10/ 11 1016.3S
LEWISETTA        0900   68 73   40/  7/ 10 1015.5S
SOLOMONS ISLAND  0900      76                N/A
PINEY POINT      0900           30/  6/  7   N/A

$$




USA.gov is the U.S. government's official web portal to all federal, state and local government web resources and services.